{"data":{"norad_id":60418,"epoch":"2026-09-21T14:40:56.837280Z","epoch_age_seconds":89484,"freshness":"FRESH","line1":"1 60418U 24141W   26264.61176895  .00000152  00000+0  15643-4 0  9994","line2":"2 60418  53.1607  48.5414 0001161  74.6074 285.5057 15.34389538119637","mean_motion":15.34389538,"eccentricity":0.0001161,"inclination_deg":53.1607,"raan_deg":48.5414,"arg_perigee_deg":74.6074,"mean_anomaly_deg":285.5057,"bstar":1.5643e-5,"rev_number":11963,"period_min":93.848397967896,"perigee_km":461.94011049048,"apogee_km":463.52856081462,"semimajor_km":6840.8713356526,"source":"CELESTRAK","updated_at":"2026-09-22T09:00:49.233071Z"}}